"Period start","avg(HW err(1)/warn(2) (#))","avg(Visibility (m))","avg(Weather code (#))","avg(Precip intensity (mm/h))","min(HW err(1)/warn(2) (#))","max(HW err(1)/warn(2) (#))","std(HW err(1)/warn(2) (#))","med(HW err(1)/warn(2) (#))","min(Visibility (m))","max(Visibility (m))","std(Visibility (m))","med(Visibility (m))","min(Weather code (#))","max(Weather code (#))","std(Weather code (#))","med(Weather code (#))","min(Precip intensity (mm/h))","max(Precip intensity (mm/h))","std(Precip intensity (mm/h))","med(Precip intensity (mm/h))"
2017-02-11 00:00:00,1,,,,1,1,0,1,,,,,,,,,,,,
2017-02-11 00:10:00,1,,,,1,1,0,1,,,,,,,,,,,,
2017-02-11 00:20:00,1,,,,1,1,0,1,,,,,,,,,,,,
2017-02-11 00:30:00,1,,,,1,1,0,1,,,,,,,,,,,,
2017-02-11 00:40:00,1,,,,1,1,0,1,,,,,,,,,,,,
2017-02-11 00:50:00,1,,,,1,1,0,1,,,,,,,,,,,,
2017-02-11 01:00:00,1,,,,1,1,0,1,,,,,,,,,,,,
2017-02-11 01:10:00,1,,,,1,1,0,1,,,,,,,,,,,,
2017-02-11 01:20:00,1,,,,1,1,0,1,,,,,,,,,,,,
2017-02-11 01:30:00,1,,,,1,1,0,1,,,,,,,,,,,,
2017-02-11 01:40:00,1,,,,1,1,0,1,,,,,,,,,,,,
2017-02-11 01:50:00,1,,,,1,1,0,1,,,,,,,,,,,,
2017-02-11 02:00:00,1,,,,1,1,0,1,,,,,,,,,,,,
2017-02-11 02:10:00,1,,,,1,1,0,1,,,,,,,,,,,,
2017-02-11 02:20:00,1,,,,1,1,0,1,,,,,,,,,,,,
2017-02-11 02:30:00,1,,,,1,1,0,1,,,,,,,,,,,,
2017-02-11 02:40:00,1,,,,1,1,0,1,,,,,,,,,,,,
2017-02-11 02:50:00,1,,,,1,1,0,1,,,,,,,,,,,,
2017-02-11 03:00:00,1,,,,1,1,0,1,,,,,,,,,,,,
2017-02-11 03:10:00,1,,,,1,1,0,1,,,,,,,,,,,,
2017-02-11 03:20:00,1,,,,1,1,0,1,,,,,,,,,,,,
2017-02-11 03:30:00,1,,,,1,1,0,1,,,,,,,,,,,,
2017-02-11 03:40:00,1,,,,1,1,0,1,,,,,,,,,,,,
2017-02-11 03:50:00,1,,,,1,1,0,1,,,,,,,,,,,,
2017-02-11 04:00:00,1,,,,1,1,0,1,,,,,,,,,,,,
2017-02-11 04:10:00,1,,,,1,1,0,1,,,,,,,,,,,,
2017-02-11 04:20:00,1,,,,1,1,0,1,,,,,,,,,,,,
2017-02-11 04:30:00,1,,,,1,1,0,1,,,,,,,,,,,,
2017-02-11 04:40:00,1,,,,1,1,0,1,,,,,,,,,,,,
2017-02-11 04:50:00,1,,,,1,1,0,1,,,,,,,,,,,,
2017-02-11 05:00:00,1,,,,1,1,0,1,,,,,,,,,,,,
2017-02-11 05:10:00,1,,,,1,1,0,1,,,,,,,,,,,,
2017-02-11 05:20:00,1,,,,1,1,0,1,,,,,,,,,,,,
2017-02-11 05:30:00,1,,,,1,1,0,1,,,,,,,,,,,,
2017-02-11 05:40:00,1,,,,1,1,0,1,,,,,,,,,,,,
2017-02-11 05:50:00,1,,,,1,1,0,1,,,,,,,,,,,,
2017-02-11 06:00:00,1,,,,1,1,0,1,,,,,,,,,,,,
2017-02-11 06:10:00,1,,,,1,1,0,1,,,,,,,,,,,,
2017-02-11 06:20:00,1,,,,1,1,0,1,,,,,,,,,,,,
2017-02-11 06:30:00,1,,,,1,1,0,1,,,,,,,,,,,,
2017-02-11 06:40:00,1,,,,1,1,0,1,,,,,,,,,,,,
2017-02-11 06:50:00,1,,,,1,1,0,1,,,,,,,,,,,,
2017-02-11 07:00:00,1,,,,1,1,0,1,,,,,,,,,,,,
2017-02-11 07:10:00,1,,,,1,1,0,1,,,,,,,,,,,,
2017-02-11 07:20:00,1,,,,1,1,0,1,,,,,,,,,,,,
2017-02-11 07:30:00,1,,,,1,1,0,1,,,,,,,,,,,,
2017-02-11 07:40:00,1,,,,1,1,0,1,,,,,,,,,,,,
2017-02-11 07:50:00,1,,,,1,1,0,1,,,,,,,,,,,,
2017-02-11 08:00:00,1,,,,1,1,0,1,,,,,,,,,,,,
2017-02-11 08:10:00,1,,,,1,1,0,1,,,,,,,,,,,,
2017-02-11 08:20:00,1,,,,1,1,0,1,,,,,,,,,,,,
2017-02-11 08:30:00,1,,,,1,1,0,1,,,,,,,,,,,,
2017-02-11 08:40:00,1,14610,,0.00,1,2,0,1,0,29601,14612,14419,,,,,0.00,0.00,0.00,0.00
2017-02-11 08:50:00,2,29052,20,0.00,2,2,0,2,27343,30833,1061,28826,20,20,0,20,0.00,0.00,0.00,0.00
2017-02-11 09:00:00,2,27133,20,0.00,2,2,0,2,25002,28830,1142,27155,20,20,0,20,0.00,0.00,0.00,0.00
2017-02-11 09:10:00,2,27036,20,0.00,2,2,0,2,21283,30912,3038,27699,20,20,0,20,0.00,0.00,0.00,0.00
2017-02-11 09:20:00,2,24941,20,0.00,2,2,0,2,21630,28222,1846,25220,20,20,0,20,0.00,0.00,0.00,0.00
2017-02-11 09:30:00,2,25991,14,0.00,2,2,0,2,22810,29346,2209,25485,0,20,9,20,0.00,0.00,0.00,0.00
2017-02-11 09:40:00,2,27065,0,0.00,2,2,0,2,23291,29542,1686,27380,0,0,0,0,0.00,0.00,0.00,0.00
2017-02-11 09:50:00,2,28483,0,0.00,2,2,0,2,26789,31379,1430,28174,0,0,0,0,0.00,0.00,0.00,0.00
2017-02-11 10:00:00,2,29266,0,0.00,2,2,0,2,25080,31023,1711,29720,0,0,0,0,0.00,0.00,0.00,0.00
2017-02-11 10:10:00,2,27826,0,0.00,2,2,0,2,23522,30624,1956,28206,0,0,0,0,0.00,0.00,0.00,0.00
2017-02-11 10:20:00,2,26371,0,0.00,2,2,0,2,23987,29602,1952,25606,0,0,0,0,0.00,0.00,0.00,0.00
2017-02-11 10:30:00,2,28816,0,0.00,2,2,0,2,26610,33117,1865,28314,0,0,0,0,0.00,0.00,0.00,0.00
2017-02-11 10:40:00,2,29236,0,0.00,2,2,0,2,24702,33351,2863,28950,0,0,0,0,0.00,0.00,0.00,0.00
2017-02-11 10:50:00,2,29074,0,0.00,2,2,0,2,25363,31834,1967,29176,0,0,0,0,0.00,0.00,0.00,0.00
2017-02-11 11:00:00,2,27947,0,0.00,2,2,0,2,24071,32154,2275,28226,0,0,0,0,0.00,0.00,0.00,0.00
2017-02-11 11:10:00,2,25303,0,0.00,1,2,0,2,23826,26499,959,25661,0,0,0,0,0.00,0.00,0.00,0.00
2017-02-11 11:20:00,1,,,,1,1,0,1,,,,,,,,,,,,
2017-02-11 11:30:00,2,27971,,0.00,1,2,0,2,25549,32738,2534,27374,,,,,0.00,0.00,0.00,0.00
2017-02-11 11:40:00,2,29494,0,0.00,2,2,0,2,27330,31947,1604,29432,0,0,0,0,0.00,0.00,0.00,0.00
2017-02-11 11:50:00,2,28855,0,0.00,2,2,0,2,26471,32327,1773,28476,0,0,0,0,0.00,0.00,0.00,0.00
2017-02-11 12:00:00,2,29214,0,0.00,2,2,0,2,23175,34766,3801,29307,0,0,0,0,0.00,0.00,0.00,0.00
2017-02-11 12:10:00,2,30784,0,0.00,2,2,0,2,24796,36493,4032,31177,0,0,0,0,0.00,0.00,0.00,0.00
2017-02-11 12:20:00,2,33337,0,0.00,2,2,0,2,28283,37117,2909,32704,0,0,0,0,0.00,0.00,0.00,0.00
2017-02-11 12:30:00,2,30707,0,0.00,2,2,0,2,28006,33773,2006,31324,0,0,0,0,0.00,0.00,0.00,0.00
2017-02-11 12:40:00,2,30877,0,0.00,2,2,0,2,25737,35631,3229,30312,0,0,0,0,0.00,0.00,0.00,0.00
2017-02-11 12:50:00,2,29737,0,0.00,2,2,0,2,24684,34408,2661,30198,0,0,0,0,0.00,0.00,0.00,0.00
2017-02-11 13:00:00,2,33084,0,0.00,2,2,0,2,29229,38602,2627,32582,0,0,0,0,0.00,0.00,0.00,0.00
2017-02-11 13:10:00,2,33010,0,0.00,2,2,0,2,27790,39613,3851,31912,0,0,0,0,0.00,0.00,0.00,0.00
2017-02-11 13:20:00,2,29160,0,0.00,2,2,0,2,24827,33918,2945,28646,0,0,0,0,0.00,0.00,0.00,0.00
2017-02-11 13:30:00,2,32042,0,0.00,2,2,0,2,28746,34364,1804,32120,0,0,0,0,0.00,0.00,0.00,0.00
2017-02-11 13:40:00,2,33179,0,0.00,2,2,0,2,29398,38411,2622,32741,0,0,0,0,0.00,0.00,0.00,0.00
2017-02-11 13:50:00,2,30646,0,0.00,2,2,0,2,25832,37093,3319,30282,0,0,0,0,0.00,0.00,0.00,0.00
2017-02-11 14:00:00,2,33163,0,0.00,2,2,0,2,30581,38250,2624,32262,0,0,0,0,0.00,0.00,0.00,0.00
2017-02-11 14:10:00,2,29442,0,0.00,2,2,0,2,26428,32837,1621,29665,0,0,0,0,0.00,0.00,0.00,0.00
2017-02-11 14:20:00,2,28625,0,0.00,2,2,0,2,24701,33168,2445,28629,0,0,0,0,0.00,0.00,0.00,0.00
2017-02-11 14:30:00,2,26078,0,0.00,2,2,0,2,23244,27795,1314,26214,0,0,0,0,0.00,0.00,0.00,0.00
2017-02-11 14:40:00,2,30560,0,0.00,2,2,0,2,26428,33884,2214,30768,0,0,0,0,0.00,0.00,0.00,0.00
2017-02-11 14:50:00,2,29298,0,0.00,2,2,0,2,24097,35816,3893,28393,0,0,0,0,0.00,0.00,0.00,0.00
2017-02-11 15:00:00,2,29360,0,0.00,2,2,0,2,24016,34022,2927,29098,0,0,0,0,0.00,0.00,0.00,0.00
2017-02-11 15:10:00,2,27812,0,0.00,2,2,0,2,23859,31589,2441,28114,0,0,0,0,0.00,0.00,0.00,0.00
2017-02-11 15:20:00,2,28830,0,0.00,2,2,0,2,25421,33960,2811,28414,0,0,0,0,0.00,0.00,0.00,0.00
2017-02-11 15:30:00,2,29271,0,0.00,2,2,0,2,26799,31683,1615,29470,0,0,0,0,0.00,0.00,0.00,0.00
2017-02-11 15:40:00,2,35005,0,0.00,2,2,0,2,30904,42661,3263,34618,0,0,0,0,0.00,0.00,0.00,0.00
2017-02-11 15:50:00,2,32253,0,0.00,2,2,0,2,27753,38859,3553,32284,0,0,0,0,0.00,0.00,0.00,0.00
2017-02-11 16:00:00,2,32489,0,0.00,2,2,0,2,30117,38168,2516,31468,0,0,0,0,0.00,0.00,0.00,0.00
2017-02-11 16:10:00,2,28571,0,0.00,2,2,0,2,23946,32283,2540,29537,0,0,0,0,0.00,0.00,0.00,0.00
2017-02-11 16:20:00,2,29188,0,0.00,2,2,0,2,25995,32488,2019,29750,0,0,0,0,0.00,0.00,0.00,0.00
2017-02-11 16:30:00,2,30756,0,0.00,2,2,0,2,25988,37223,3492,30198,0,0,0,0,0.00,0.00,0.00,0.00
2017-02-11 16:40:00,2,31791,0,0.00,2,2,0,2,26417,35822,2790,31753,0,0,0,0,0.00,0.00,0.00,0.00
2017-02-11 16:50:00,2,31736,0,0.00,2,2,0,2,28393,33978,1673,32396,0,0,0,0,0.00,0.00,0.00,0.00
2017-02-11 17:00:00,2,28652,0,0.00,2,2,0,2,25860,30047,1226,28983,0,0,0,0,0.00,0.00,0.00,0.00
2017-02-11 17:10:00,2,28424,0,0.00,2,2,0,2,26463,31764,2095,27138,0,0,0,0,0.00,0.00,0.00,0.00
2017-02-11 17:20:00,2,35642,0,0.00,2,2,0,2,30789,44054,4687,34016,0,0,0,0,0.00,0.00,0.00,0.00
2017-02-11 17:30:00,2,37445,0,0.00,2,2,0,2,31016,41849,3363,38565,0,0,0,0,0.00,0.00,0.00,0.00
2017-02-11 17:40:00,2,33841,0,0.00,2,2,0,2,31166,37736,1812,33348,0,0,0,0,0.00,0.00,0.00,0.00
2017-02-11 17:50:00,2,31563,0,0.00,2,2,0,2,25083,35955,3058,31961,0,0,0,0,0.00,0.00,0.00,0.00
2017-02-11 18:00:00,2,25882,0,0.00,2,2,0,2,22331,28126,1686,26406,0,0,0,0,0.00,0.00,0.00,0.00
2017-02-11 18:10:00,2,32666,0,0.00,2,2,0,2,29067,37388,2589,32350,0,0,0,0,0.00,0.00,0.00,0.00
2017-02-11 18:20:00,2,39025,0,0.00,2,2,0,2,36487,43902,2018,38705,0,0,0,0,0.00,0.00,0.00,0.00
2017-02-11 18:30:00,2,24816,0,0.00,2,2,0,2,16076,39442,6104,24455,0,0,0,0,0.00,0.00,0.00,0.00
2017-02-11 18:40:00,2,16993,0,0.00,2,2,0,2,15866,17892,729,17328,0,0,0,0,0.00,0.00,0.00,0.00
2017-02-11 18:50:00,2,19152,0,0.00,2,2,0,2,16753,22423,1838,18541,0,0,0,0,0.00,0.00,0.00,0.00
2017-02-11 19:00:00,2,17999,0,0.00,2,2,0,2,16201,20172,1109,17917,0,0,0,0,0.00,0.00,0.00,0.00
2017-02-11 19:10:00,2,20881,0,0.00,2,2,0,2,18718,24651,1827,20266,0,0,0,0,0.00,0.00,0.00,0.00
2017-02-11 19:20:00,2,21143,0,0.00,2,2,0,2,18952,23968,1617,21006,0,0,0,0,0.00,0.00,0.00,0.00
2017-02-11 19:30:00,2,16248,0,0.00,2,2,0,2,11576,20441,2658,15776,0,0,0,0,0.00,0.00,0.00,0.00
2017-02-11 19:40:00,2,8994,36,0.02,2,2,0,2,6315,12090,2113,8758,0,71,36,36,0.00,0.10,0.03,0.00
2017-02-11 19:50:00,2,8022,76,0.02,2,2,0,2,7571,9266,482,7894,71,78,3,78,0.00,0.10,0.03,0.00
2017-02-11 20:00:00,2,8611,78,0.03,2,2,0,2,7589,10200,871,8354,77,78,0,78,0.00,0.20,0.06,0.00
2017-02-11 20:10:00,2,9388,72,0.06,2,2,0,2,7351,11305,1047,9660,71,78,3,71,0.00,0.30,0.09,0.03
2017-02-11 20:20:00,2,11863,74,0.03,2,2,0,2,9942,13365,1135,11884,71,77,3,74,0.00,0.25,0.07,0.00
2017-02-11 20:30:00,2,15763,75,0.02,2,2,0,2,10760,21154,3092,15344,71,77,3,77,0.00,0.05,0.02,0.00
2017-02-11 20:40:00,2,15285,76,0.05,2,2,0,2,10033,22676,4019,14526,71,78,3,77,0.00,0.10,0.04,0.05
2017-02-11 20:50:00,2,13530,73,0.03,2,2,0,2,10699,19524,2940,12058,71,77,3,71,0.00,0.10,0.03,0.03
2017-02-11 21:00:00,2,16317,76,0.03,2,2,0,2,11692,21805,3424,16726,71,78,3,77,0.00,0.15,0.05,0.00
2017-02-11 21:10:00,2,21888,46,0.02,2,2,0,2,11649,27310,5487,23572,0,77,37,74,0.00,0.10,0.03,0.00
2017-02-11 21:20:00,2,34170,46,0.00,2,2,0,2,29197,37579,3100,35718,0,78,38,74,0.00,0.00,0.00,0.00
2017-02-11 21:30:00,2,40871,0,0.00,2,2,0,2,37443,44113,1804,40967,0,0,0,0,0.00,0.00,0.00,0.00
2017-02-11 21:40:00,2,40319,0,0.00,2,2,0,2,35074,44250,2605,40664,0,0,0,0,0.00,0.00,0.00,0.00
2017-02-11 21:50:00,2,45741,0,0.00,2,2,0,2,39597,50000,2926,45464,0,0,0,0,0.00,0.00,0.00,0.00
2017-02-11 22:00:00,2,40024,0,0.00,2,2,0,2,29539,50000,7047,39426,0,0,0,0,0.00,0.00,0.00,0.00
2017-02-11 22:10:00,2,41072,0,0.00,2,2,0,2,27565,49057,6976,43214,0,0,0,0,0.00,0.00,0.00,0.00
2017-02-11 22:20:00,2,44480,0,0.00,2,2,0,2,36884,49982,3561,45012,0,0,0,0,0.00,0.00,0.00,0.00
2017-02-11 22:30:00,2,47422,0,0.00,2,2,0,2,40024,50000,3019,48381,0,0,0,0,0.00,0.00,0.00,0.00
2017-02-11 22:40:00,2,27915,0,0.00,2,2,0,2,14733,46084,10744,27237,0,0,0,0,0.00,0.00,0.00,0.00
2017-02-11 22:50:00,2,30694,0,0.00,2,2,0,2,16456,40774,7376,30522,0,0,0,0,0.00,0.00,0.00,0.00
2017-02-11 23:00:00,2,43767,0,0.00,2,2,0,2,29099,50000,6549,46866,0,0,0,0,0.00,0.00,0.00,0.00
2017-02-11 23:10:00,2,42562,0,0.00,2,2,0,2,29060,50000,6805,45111,0,0,0,0,0.00,0.00,0.00,0.00
2017-02-11 23:20:00,2,29640,0,0.00,2,2,0,2,8000,44182,13657,37418,0,0,0,0,0.00,0.00,0.00,0.00
2017-02-11 23:30:00,2,4220,33,0.01,2,2,0,2,1775,11060,2579,3332,0,78,34,10,0.00,0.05,0.02,0.00
2017-02-11 23:40:00,2,2968,58,0.02,2,2,0,2,1206,5154,1072,3008,10,78,31,78,0.00,0.10,0.03,0.00
2017-02-11 23:50:00,2,12128,10,0.00,2,2,0,2,3950,20385,5663,13030,10,10,0,10,0.00,0.00,0.00,0.00
